FW9258 Weather Reports


time (UTC)temp
F
wind
direction
speed
knots
gust
knots
rain 1hr
in
rain 24hr
in
rain mn
in
humidity
%
barometer
mb
20260506164015 54 0 0.0 0.0 0.00 0.00 0.00 60 1014.5
20260506163515 54 0 0.0 0.9 0.00 0.00 0.00 62 1014.5
20260506163038 54 0 0.0 1.7 0.00 0.00 0.00 59 1014.5
20260506162516 54 305 0.0 1.7 0.00 0.00 0.00 62 1014.4
20260506162015 54 307 0.0 2.6 0.00 0.00 0.00 62 1014.5
20260506161532 54 0 0.0 3.5 0.00 0.00 0.00 66 1014.5
20260506161016 55 298 0.9 3.5 0.00 0.00 0.00 66 1014.5
20260506160515 55 323 0.9 4.3 0.00 0.00 0.00 66 1014.5
20260506160034 55 319 1.7 4.3 0.00 0.00 0.00 63 1014.5
20260506155515 55 302 1.7 4.3 0.00 0.00 0.00 63 1014.4
20260506155016 55 233 1.7 4.3 0.00 0.00 0.00 67 1014.5
20260506154533 55 333 2.6 5.2 0.00 0.00 0.00 65 1014.5
20260506154016 55 198 2.6 5.2 0.00 0.00 0.00 68 1014.5
20260506153516 54 35 2.6 5.2 0.00 0.00 0.00 67 1014.5
20260506153032 54 329 2.6 6.1 0.00 0.00 0.00 67 1014.6
20260506152514 55 325 2.6 7.0 0.00 0.00 0.00 68 1014.6
20260506152016 55 36 2.6 7.0 0.00 0.00 0.00 64 1014.6
20260506151536 55 189 3.5 6.1 0.00 0.00 0.00 66 1014.6
20260506151019 55 169 2.6 5.2 0.00 0.00 0.00 66 1014.6
20260506150515 55 16 3.5 5.2 0.00 0.00 0.00 63 1014.7
20260506150030 55 100 3.5 6.1 0.00 0.00 0.00 66 1014.6
20260506145519 55 195 2.6 7.0 0.00 0.00 0.00 66 1014.6
20260506145015 55 253 4.3 7.0 0.00 0.00 0.00 65 1014.6
20260506144536 55 42 2.6 8.7 0.00 0.00 0.00 66 1014.7
20260506144020 56 139 3.5 8.7 0.00 0.00 0.00 65 1014.7
20260506143515 55 31 3.5 7.8 0.00 0.00 0.00 68 1014.8
20260506143033 55 91 3.5 7.8 0.00 0.00 0.00 67 1014.8
20260506142518 55 110 4.3 7.8 0.00 0.00 0.00 67 1014.9
20260506142015 55 115 4.3 7.8 0.00 0.00 0.00 66 1014.8
20260506141532 55 155 4.3 7.8 0.00 0.00 0.00 69 1014.8
20260506141017 55 269 3.5 7.0 0.00 0.00 0.00 68 1014.9
20260506140518 54 226 2.6 7.0 0.00 0.00 0.00 72 1014.9
20260506140032 54 328 4.3 7.8 0.00 0.00 0.00 72 1014.8
20260506135516 54 326 4.3 7.8 0.00 0.00 0.00 72 1014.9
20260506135015 54 351 3.5 7.0 0.00 0.00 0.00 73 1015.0
20260506134530 54 57 3.5 7.0 0.00 0.00 0.00 71 1015.1
20260506134017 55 89 4.3 7.8 0.00 0.00 0.00 72 1015.1
20260506133514 54 226 4.3 7.8 0.00 0.00 0.00 72 1015.1
20260506133043 54 116 4.3 7.8 0.00 0.00 0.00 71 1015.2
20260506132515 54 190 3.5 8.7 0.00 0.00 0.00 73 1015.3
20260506132015 54 146 4.3 8.7 0.00 0.00 0.00 71 1015.2
20260506131535 54 86 4.3 8.7 0.00 0.00 0.00 71 1015.3
20260506131015 54 172 2.6 7.8 0.00 0.00 0.00 71 1015.2
20260506130517 54 72 4.3 7.8 0.00 0.00 0.00 72 1015.3
20260506130032 54 269 4.3 7.8 0.00 0.00 0.00 72 1015.2
20260506125516 54 136 3.5 7.8 0.00 0.00 0.00 72 1015.2
20260506125014 54 76 4.3 7.8 0.00 0.00 0.00 72 1015.3
20260506124532 54 315 3.5 7.8 0.00 0.00 0.00 72 1015.3
20260506124014 54 349 3.5 8.7 0.00 0.00 0.00 72 1015.2
20260506123516 54 106 3.5 8.7 0.00 0.00 0.00 73 1015.2
20260506123032 54 114 4.3 9.6 0.00 0.00 0.00 73 1015.2
20260506122515 54 83 3.5 9.6 0.00 0.00 0.00 73 1015.2
20260506122015 55 114 4.3 7.8 0.00 0.00 0.00 72 1015.3
20260506121533 55 267 3.5 7.8 0.00 0.00 0.00 72 1015.2
20260506121019 56 209 4.3 7.8 0.00 0.00 0.00 73 1015.2
20260506120515 56 127 4.3 7.8 0.00 0.00 0.00 71 1015.1
20260506120037 56 146 2.6 7.0 0.00 0.00 0.00 73 1015.2
20260506115519 56 122 3.5 6.1 0.00 0.00 0.00 73 1015.2
20260506115016 54 136 2.6 7.0 0.00 0.00 0.00 75 1015.2
20260506114530 53 295 2.6 7.0 0.00 0.00 0.00 74 1015.1
20260506114021 52 113 4.3 7.0 0.00 0.00 0.00 74 1015.1
20260506113515 52 126 3.5 6.1 0.00 0.00 0.00 74 1015.1
20260506113045 52 79 2.6 6.1 0.00 0.00 0.00 74 1015.1
20260506112516 52 13 1.7 6.1 0.00 0.00 0.00 73 1015.2
20260506112015 52 113 2.6 7.8 0.00 0.00 0.00 73 1015.3
20260506111530 52 326 3.5 7.8 0.00 0.00 0.00 73 1015.3
20260506111015 52 96 1.7 7.0 0.00 0.00 0.00 75 1015.2
20260506110518 51 310 3.5 7.0 0.00 0.00 0.00 72 1015.3
20260506110035 51 304 1.7 7.0 0.00 0.00 0.00 74 1015.4
20260506105515 51 78 3.5 7.8 0.00 0.00 0.00 74 1015.3
20260506105015 51 105 4.3 8.7 0.00 0.00 0.00 72 1015.4
20260506104537 51 114 4.3 8.7 0.00 0.00 0.00 72 1015.3
20260506104015 51 130 4.3 8.7 0.00 0.00 0.00 71 1015.3
20260506103515 50 119 4.3 7.8 0.00 0.00 0.00 74 1015.4
20260506103036 50 107 5.2 7.8 0.00 0.00 0.00 72 1015.3
20260506102515 50 120 5.2 7.8 0.00 0.00 0.00 72 1015.4
20260506102017 50 97 4.3 7.8 0.00 0.00 0.00 74 1015.4
20260506101544 49 118 4.3 9.6 0.00 0.00 0.00 74 1015.3
20260506101019 49 137 5.2 9.6 0.00 0.00 0.00 74 1015.3
20260506100515 49 6 4.3 8.7 0.00 0.00 0.00 77 1015.4
20260506100033 49 115 5.2 8.7 0.00 0.00 0.00 77 1015.4
20260506095520 49 124 6.1 9.6 0.00 0.00 0.00 75 1015.3
20260506095016 49 110 6.1 9.6 0.00 0.00 0.00 76 1015.4
20260506094533 49 122 6.1 9.6 0.00 0.00 0.00 76 1015.4
20260506094016 49 119 5.2 9.6 0.00 0.00 0.00 77 1015.3
20260506093515 50 123 5.2 10.4 0.00 0.00 0.00 77 1015.3
20260506093033 50 113 7.0 10.4 0.00 0.00 0.00 77 1015.3
20260506092515 51 115 6.1 8.7 0.00 0.00 0.00 78 1015.3
20260506092017 52 15 4.3 7.8 0.00 0.00 0.00 80 1015.3
20260506091532 52 96 4.3 7.8 0.00 0.00 0.00 79 1015.1
20260506091014 52 309 0.9 7.0 0.00 0.00 0.00 81 1015.1
20260506090514 51 120 3.5 7.0 0.00 0.00 0.00 81 1015.1
20260506090032 51 117 2.6 7.0 0.00 0.00 0.00 81 1015.1
20260506085514 50 110 2.6 5.2 0.00 0.00 0.00 81 1015.2
20260506085015 50 105 2.6 7.0 0.00 0.00 0.00 81 1015.1
20260506084538 50 0 3.5 7.0 0.00 0.00 0.00 80 1015.2
20260506084016 51 91 0.9 7.8 0.00 0.00 0.00 81 1015.2
20260506083519 51 307 0.9 7.8 0.00 0.00 0.00 83 1015.1
20260506083034 51 110 3.5 5.2 0.00 0.00 0.00 83 1015.1
20260506082515 50 321 0.9 3.5 0.00 0.00 0.00 83 1015.2
20260506082016 50 310 0.0 4.3 0.00 0.00 0.00 83 1015.1
20260506081535 50 304 0.9 4.3 0.00 0.00 0.00 82 1015.0
20260506081021 50 309 1.7 4.3 0.00 0.00 0.00 82 1015.1
20260506080517 51 326 0.0 5.2 0.00 0.00 0.00 82 1015.0
20260506073037 49 338 0.0 0.9 0.00 0.00 0.00 84 1014.9
20260506072516 49 0 0.0 1.7 0.00 0.00 0.00 84 1015.0
20260506072019 49 0 0.0 2.6 0.00 0.00 0.00 85 1014.9
20260506071534 48 0 0.0 2.6 0.00 0.00 0.00 85 1014.9
20260506071015 48 340 0.0 4.3 0.00 0.00 0.00 85 1014.8
20260506070515 48 0 0.9 4.3 0.00 0.00 0.00 84 1014.8
20260506062517 47 346 1.7 4.3 0.00 0.00 0.00 85 1014.5
20260506062016 46 347 1.7 5.2 0.00 0.00 0.00 85 1014.5
20260506061535 46 356 2.6 5.2 0.00 0.00 0.00 85 1014.5
20260506061016 46 359 2.6 5.2 0.00 0.00 0.00 85 1014.5
20260506060518 46 349 3.5 5.2 0.00 0.00 0.00 85 1014.4
20260506051016 45 353 2.6 4.3 0.00 0.00 0.00 85 1014.3
20260506050518 45 357 3.5 4.3 0.00 0.00 0.00 85 1014.3
20260506045020 45 351 2.6 5.2 0.00 0.00 0.00 84 1014.2
20260506044536 46 354 3.5 5.2 0.00 0.00 0.00 84 1014.2
20260506044017 46 350 3.5 5.2 0.00 0.00 0.00 84 1014.2
20260506043520 46 351 3.5 5.2 0.00 0.00 0.00 84 1014.2
20260506043036 46 355 2.6 3.5 0.00 0.00 0.00 84 1014.3
20260506042518 46 348 2.6 4.3 0.00 0.00 0.00 84 1014.2
20260506042016 46 345 2.6 4.3 0.00 0.00 0.00 84 1014.3
20260506041535 46 347 2.6 3.5 0.00 0.00 0.00 84 1014.3
20260506041015 47 345 1.7 3.5 0.00 0.00 0.00 84 1014.3
20260506040515 47 342 0.9 3.5 0.00 0.00 0.00 83 1014.4
20260506040039 47 340 1.7 3.5 0.00 0.00 0.00 83 1014.3
20260506035518 47 343 1.7 3.5 0.00 0.00 0.00 84 1014.3
20260506035015 47 342 1.7 3.5 0.00 0.00 0.00 84 1014.4
20260506034530 47 340 0.9 3.5 0.00 0.00 0.00 84 1014.4
20260506034015 47 342 0.9 3.5 0.00 0.00 0.00 84 1014.5
20260506033514 47 340 1.7 3.5 0.00 0.00 0.00 84 1014.4
20260506033034 47 339 0.9 3.5 0.00 0.00 0.00 84 1014.4
20260506032516 47 0 0.9 3.5 0.00 0.00 0.00 84 1014.4
20260506032015 47 360 1.7 3.5 0.00 0.00 0.00 84 1014.5
20260506031530 47 338 0.9 3.5 0.00 0.00 0.00 84 1014.5
20260506031016 47 341 0.9 3.5 0.00 0.00 0.00 84 1014.4
20260506030519 47 339 0.9 3.5 0.00 0.00 0.00 83 1014.4
20260506030032 47 335 0.9 3.5 0.00 0.00 0.00 83 1014.4
20260506025516 47 341 1.7 3.5 0.00 0.00 0.00 83 1014.5
20260506025015 47 341 1.7 4.3 0.00 0.00 0.00 83 1014.4
20260506024534 47 348 1.7 4.3 0.00 0.00 0.00 83 1014.5
20260506024019 47 340 1.7 4.3 0.00 0.00 0.00 83 1014.5
20260506023515 47 347 1.7 5.2 0.00 0.00 0.00 83 1014.5
20260506023042 47 7 1.7 5.2 0.00 0.00 0.00 83 1014.5
20260506022515 47 349 1.7 4.3 0.00 0.00 0.00 84 1014.5
20260506022017 47 344 1.7 3.5 0.00 0.00 0.00 84 1014.5
20260506021535 47 338 0.9 3.5 0.00 0.00 0.00 84 1014.5
20260506021014 47 336 0.9 3.5 0.00 0.00 0.00 84 1014.5
20260506020515 47 340 1.7 3.5 0.00 0.00 0.00 84 1014.6
20260506020033 47 338 1.7 3.5 0.00 0.00 0.00 84 1014.6
20260506015515 48 340 0.9 3.5 0.00 0.00 0.00 83 1014.6
20260506015021 48 352 1.7 4.3 0.00 0.00 0.00 83 1014.6
20260506014534 48 338 1.7 4.3 0.00 0.00 0.00 83 1014.6
20260506014015 48 341 2.6 4.3 0.00 0.00 0.00 83 1014.6
20260506013515 48 349 2.6 4.3 0.00 0.00 0.00 83 1014.6
20260506013034 48 338 2.6 4.3 0.00 0.00 0.00 83 1014.6
20260506012516 48 344 2.6 4.3 0.00 0.00 0.00 83 1014.7
20260506012017 48 349 2.6 4.3 0.00 0.00 0.00 83 1014.6
20260506011533 48 341 1.7 4.3 0.00 0.00 0.00 83 1014.6
20260506011015 48 344 1.7 4.3 0.00 0.00 0.00 83 1014.7
20260506010515 48 341 1.7 5.2 0.00 0.00 0.00 83 1014.7
20260506010045 48 345 2.6 5.2 0.00 0.00 0.00 83 1014.8
20260506005514 48 343 1.7 5.2 0.00 0.00 0.00 83 1014.7
20260506005016 48 345 2.6 5.2 0.00 0.00 0.00 83 1014.8
20260506004530 48 341 1.7 4.3 0.00 0.00 0.00 82 1014.9
20260506004019 48 9 2.6 5.2 0.00 0.00 0.00 82 1014.9
20260506003515 48 345 1.7 5.2 0.00 0.00 0.00 82 1014.9
20260506003032 48 340 3.5 5.2 0.00 0.00 0.00 82 1014.9
20260506002514 48 340 2.6 4.3 0.00 0.00 0.00 82 1015.0
20260506002014 48 335 2.6 4.3 0.00 0.00 0.00 82 1015.1
20260506001532 48 340 1.7 3.5 0.00 0.00 0.00 83 1015.0
20260506001016 48 332 0.0 4.3 0.00 0.00 0.00 82 1015.0
20260506000516 48 335 0.0 4.3 0.00 0.00 0.00 82 1014.9
20260506000031 48 1 1.7 4.3 0.00 0.00 0.00 82 1014.9
20260505235515 48 352 0.9 3.5 0.00 0.00 0.00 82 1014.9
20260505235015 48 318 1.7 4.3 0.00 0.00 0.00 82 1014.9
20260505234554 48 331 1.7 4.3 0.00 0.00 0.00 82 1015.0
20260505234016 48 336 2.6 4.3 0.00 0.00 0.00 82 1015.1
20260505233515 48 330 0.9 3.5 0.00 0.00 0.00 82 1015.1
20260505233036 48 0 0.0 4.3 0.00 0.00 0.00 82 1015.1
20260505232515 48 296 1.7 4.3 0.00 0.00 0.00 82 1015.1
20260505232015 48 321 1.7 4.3 0.00 0.00 0.00 82 1015.1
20260505231534 48 311 1.7 5.2 0.00 0.00 0.00 82 1015.1
20260505231014 48 4 0.9 5.2 0.00 0.00 0.00 81 1015.1
20260505230515 48 327 1.7 5.2 0.00 0.00 0.00 81 1015.2
20260505230031 48 337 1.7 5.2 0.00 0.00 0.00 82 1015.2
20260505225516 48 314 2.6 7.0 0.00 0.00 0.00 82 1015.2
20260505225017 48 333 1.7 7.0 0.00 0.00 0.00 82 1015.2
20260505224533 48 332 2.6 6.1 0.00 0.00 0.00 82 1015.1
20260505224016 48 344 2.6 7.0 0.00 0.00 0.00 82 1015.2
20260505223523 48 321 3.5 7.0 0.00 0.00 0.00 82 1015.2
20260505223035 48 321 1.7 6.1 0.00 0.00 0.00 82 1015.3
20260505222518 48 320 2.6 6.1 0.00 0.00 0.00 82 1015.3
20260505222020 48 309 3.5 6.1 0.00 0.00 0.00 82 1015.3
20260505221610 48 313 3.5 6.1 0.00 0.00 0.00 82 1015.3
20260505221022 48 330 3.5 6.1 0.00 0.00 0.00 82 1015.2
20260505220515 48 314 3.5 7.0 0.00 0.00 0.00 82 1015.3
20260505220031 48 319 3.5 7.0 0.00 0.00 0.00 81 1015.3
20260505215519 49 297 3.5 7.0 0.00 0.00 0.00 82 1015.2
20260505215018 49 309 3.5 7.8 0.00 0.00 0.00 81 1015.3
20260505214559 49 333 4.3 7.8 0.00 0.00 0.00 81 1015.4
20260505214021 49 335 3.5 7.8 0.00 0.00 0.00 81 1015.3
20260505213517 49 315 4.3 7.8 0.00 0.00 0.00 81 1015.3
20260505213036 49 320 3.5 8.7 0.00 0.00 0.00 80 1015.4
20260505212518 49 340 5.2 8.7 0.00 0.00 0.00 80 1015.3
20260505212017 49 2 5.2 8.7 0.00 0.00 0.00 80 1015.4
20260505211532 49 357 4.3 8.7 0.00 0.00 0.00 80 1015.4
20260505211016 49 342 3.5 7.8 0.00 0.00 0.00 80 1015.4
20260505210519 49 331 4.3 7.8 0.00 0.00 0.00 81 1015.3
20260505210034 49 335 3.5 7.8 0.00 0.00 0.00 81 1015.4
20260505205516 49 319 1.7 7.0 0.00 0.00 0.00 81 1015.4
20260505205018 49 319 2.6 7.0 0.00 0.00 0.00 82 1015.5
20260505204537 49 319 2.6 6.1 0.00 0.00 0.00 82 1015.5
20260505204019 49 321 2.6 6.1 0.00 0.00 0.00 81 1015.4
20260505203518 49 342 2.6 7.0 0.00 0.00 0.00 81 1015.4
20260505203043 49 346 2.6 7.0 0.00 0.00 0.00 81 1015.4
20260505202518 49 338 3.5 7.0 0.00 0.00 0.00 81 1015.4
20260505202017 49 318 3.5 7.0 0.00 0.00 0.00 81 1015.5
20260505201537 49 344 4.3 7.0 0.00 0.00 0.00 81 1015.4
20260505201015 49 330 4.3 8.7 0.00 0.00 0.00 81 1015.4
20260505200516 49 321 4.3 8.7 0.00 0.00 0.00 80 1015.3
20260505200034 49 328 3.5 8.7 0.00 0.00 0.00 81 1015.2
20260505195521 49 315 4.3 7.8 0.00 0.00 0.00 81 1015.2
20260505195015 49 329 4.3 7.0 0.00 0.00 0.00 81 1015.2
20260505194540 49 310 5.2 8.7 0.00 0.00 0.00 81 1015.3
20260505194019 49 304 4.3 8.7 0.00 0.00 0.00 81 1015.2
20260505193519 49 309 4.3 7.0 0.00 0.00 0.00 81 1015.1
20260505193036 49 321 4.3 7.0 0.00 0.00 0.00 81 1015.0
20260505192518 49 315 4.3 8.7 0.00 0.00 0.00 80 1015.0
20260505192021 50 309 5.2 8.7 0.00 0.00 0.00 80 1014.9
20260505191536 50 331 4.3 9.6 0.00 0.00 0.00 79 1015.0
20260505191018 50 311 5.2 9.6 0.00 0.00 0.00 78 1015.0
20260505190515 50 311 5.2 9.6 0.00 0.00 0.00 77 1014.9
20260505190037 51 324 4.3 8.7 0.00 0.00 0.00 77 1014.9
20260505185517 51 338 5.2 11.3 0.00 0.00 0.00 76 1014.9
20260505185105 51 318 6.1 11.3 0.00 0.00 0.00 75 1014.9
20260505184535 52 309 6.1 10.4 0.00 0.00 0.00 74 1014.9
20260505184018 52 331 6.1 10.4 0.00 0.00 0.00 74 1014.9
20260505183517 52 319 7.0 11.3 0.00 0.00 0.00 73 1014.9
20260505183033 53 321 6.1 11.3 0.00 0.00 0.00 74 1014.9
20260505182519 53 330 6.1 11.3 0.00 0.00 0.00 74 1014.9
20260505182015 53 326 5.2 11.3 0.00 0.00 0.00 73 1014.9
20260505181533 53 314 5.2 10.4 0.00 0.00 0.00 73 1014.9
20260505181017 54 360 5.2 12.2 0.00 0.00 0.00 73 1014.7
20260505180518 54 316 6.1 12.2 0.00 0.00 0.00 72 1014.7
20260505180057 54 327 7.8 12.2 0.00 0.00 0.00 70 1014.7
20260505175521 54 322 7.0 13.0 0.00 0.00 0.00 71 1014.8
20260505175022 54 331 7.0 13.0 0.00 0.00 0.00 71 1014.7
20260505174553 54 316 7.0 11.3 0.00 0.00 0.00 70 1014.7
20260505174018 55 308 6.1 10.4 0.00 0.00 0.00 70 1014.7
20260505173519 55 342 6.1 10.4 0.00 0.00 0.00 71 1014.7
20260505173043 55 10 6.1 12.2 0.00 0.00 0.00 71 1014.8
20260505172515 55 334 7.0 13.0 0.00 0.00 0.00 71 1014.7
20260505172015 55 319 7.0 13.0 0.00 0.00 0.00 70 1014.7
20260505171534 55 326 7.8 11.3 0.00 0.00 0.00 70 1014.8
20260505171021 55 336 7.0 11.3 0.00 0.00 0.00 69 1014.9
20260505170515 55 317 7.0 13.9 0.00 0.00 0.00 70 1014.8
20260505170038 55 34 7.0 13.9 0.00 0.00 0.00 69 1014.9
20260505165518 56 352 7.8 13.0 0.00 0.00 0.00 69 1014.9
20260505165016 56 320 7.8 13.9 0.00 0.00 0.00 70 1014.9
20260505164533 56 309 7.0 13.9 0.00 0.00 0.00 72 1015.0